Home   Weather   Würselen   Past weeks

Flag for Germany Past Weather in Würselen, North Rhine-Westphalia, Germany — Yesterday and Last 2 Weeks

Now
23 °F

Clear.


Feels Like: 23 °F
Forecast: 18 / 33 °F
Wind: 1 mph from Southeast

Location: Geilenkirchen Airport

Current Time: Jan 19, 2017 at 10:19:26 pm

Latest Report: Jan 19, 2017 at 8:50 pm


Visibility: 10 mi

Pressure: 30.60 "Hg

Humidity: 86%

Dew Point: 19 °F

Location of WürselenLocation

Past Weather in Würselen — Graph

°F

Würselen Temperature Yesterday

Maximum temperature yesterday: 30 °F (at 1:50 pm)
Minimum temperature yesterday: 18 °F (at 5:50 am)
Average temperature yesterday: 24 °F

High & Low Weather Summary for the Past Weeks

 TemperatureHumidityPressure
High46 °F (Jan 11, 2:50 pm)100% (Jan 6, 6:50 am)30.74 "Hg (Jan 6, 6:50 am)
Low18 °F (Jan 6, 3:50 am)55% (Jan 6, 1:50 pm)28.94 "Hg (Jan 13, 12:50 am)
Average33 °F87%30.22 "Hg
* Reported Jan 4 8:50 pm — Jan 19 8:50 pm, Würselen, Weather by CustomWeather, © 2017

Note: Actual official high and low records may vary slightly from our data, if they occured in-between our weather recording intervals... More about our weather records

Advertising

Würselen Weather History for the Previous 24 Hours

Scroll right to see more
 ConditionsComfort  
Time TempWeatherWind HumidityBarometerVisibility
8:50 pm
Thu, Jan 19
23 °FClear.1 mph86%30.60 "Hg10 mi
7:50 pm25 °FClear.1 mph80%30.60 "Hg10 mi
6:50 pm27 °FClear.1 mph80%30.60 "Hg10 mi
5:50 pm27 °FClear.No wind74%30.60 "Hg10 mi
4:50 pm34 °FSunny.6 mph60%30.60 "Hg10 mi
3:50 pm36 °FSunny.8 mph60%30.60 "Hg10 mi
2:50 pm36 °FSunny.12 mph60%30.60 "Hg10 mi
1:50 pm34 °FSunny.9 mph60%30.63 "Hg10 mi
12:50 pm32 °FSunny.10 mph64%30.63 "Hg10 mi
11:50 am30 °FSunny.13 mph64%30.63 "Hg10 mi
10:50 am28 °FSunny.13 mph74%30.66 "Hg10 mi
9:50 am25 °FSunny.10 mph80%30.63 "Hg10 mi
8:50 am23 °FSunny.9 mph80%30.63 "Hg10 mi
7:50 am23 °FClear.9 mph86%30.63 "Hg10 mi
6:50 am21 °FClear.7 mph93%30.63 "Hg10 mi
5:50 am23 °FClear.7 mph93%30.63 "Hg10 mi
4:50 am21 °FClear.9 mph86%30.63 "Hg10 mi
3:50 am23 °FClear.8 mph93%30.63 "Hg10 mi
2:50 am21 °FCold.7 mph93%30.63 "Hg5 mi
1:50 am21 °FIce fog.3 mph100%30.63 "Hg3 mi
12:50 am21 °FIce fog.No wind100%30.63 "Hg2 mi
11:50 pm
Wed, Jan 18
19 °FIce fog.3 mph93%30.63 "Hg1 mi
10:50 pm23 °FIce fog.No wind93%30.66 "Hg1 mi
Weather by CustomWeather, © 2017

See weather overviewHow to use our weather pages